Hickory, NC

9:35 PM EDT on May 20, 2018 (GMT -0400)
Hickory Regional

Weather History for KHKY - September, 2014

Change the Weather History Date:

Wednesday, September 24, 2014

  Actual Average Record
Temperature  
Mean Temperature 59 °F -  
Max Temperature 68 °F 76 °F 93 °F (2016)
Min Temperature 52 °F 55 °F 40 °F (1990)
Degree Days  
Heating Degree Days 6    
Growing Degree Days 9 (Base 50)    
Moisture  
Dew Point 54 °F    
Average Humidity 84    
Maximum Humidity 96    
Minimum Humidity 60    
Precipitation  
Precipitation 0.17 in - - ()
Sea Level Pressure  
Sea Level Pressure 30.30 in    
Wind  
Wind Speed 4 mph (NNE)    
Max Wind Speed 12 mph    
Max Gust Speed -    
Visibility 8 miles    
Events Rain    
Averages and records for this station are not official NWS values.
T = Trace of Precipitation, MM = Missing Value Source: NWS Daily Summary

Daily Weather History Graph

Daily Weather History Graph

Search for Another Location

Airport or City:

Astronomy

Sep. 24, 2014 Rise Set
Actual Time 7:15 AM EDT 7:19 PM EDT
Civil Twilight 6:49 AM EDT 7:44 PM EDT
Nautical Twilight 6:19 AM EDT 8:14 PM EDT
Astronomical Twilight 5:49 AM EDT 8:44 PM EDT
Moon 7:32 AM EDT (9/24) 7:31 PM EDT (9/24)
Length of Visible Light 12h 55m
Length of Day
12h 04m
New Moon, 0% of the Moon is Illuminated
Sep 24
New Moon
Oct 1
First Quarter
Oct 8
Full
Oct 15
Last Quarter
Oct 23
New

Hourly Weather History & Observations

Time (EDT) Temp. Dew Point Humidity Pressure Visibility Wind Dir Wind Speed Gust Speed Precip Events Conditions
12:53 AM 53.1 °F 51.1 °F 93% 30.30 in 10.0 mi Calm Calm - N/A   Scattered Clouds
1:53 AM 53.1 °F 50.0 °F 89% 30.29 in 10.0 mi Calm Calm - N/A   Clear
2:53 AM 52.0 °F 48.9 °F 89% 30.29 in 10.0 mi NNW 3.5 mph - N/A   Clear
3:53 AM 53.1 °F 48.9 °F 86% 30.27 in 10.0 mi NW 3.5 mph - N/A   Clear
4:53 AM 52.0 °F 48.0 °F 86% 30.28 in 10.0 mi NNW 4.6 mph - N/A   Clear
5:53 AM 52.0 °F 46.9 °F 83% 30.30 in 10.0 mi Calm Calm - N/A   Clear
6:53 AM 52.0 °F 46.9 °F 83% 30.32 in 10.0 mi Calm Calm - N/A   Overcast
7:53 AM 53.1 °F 46.9 °F 80% 30.32 in 10.0 mi North 6.9 mph - N/A   Overcast
8:53 AM 54.0 °F 48.0 °F 80% 30.33 in 10.0 mi North 5.8 mph - N/A   Mostly Cloudy
9:41 AM 57.0 °F 48.9 °F 74% 30.37 in 10.0 mi NNE 6.9 mph - N/A   Scattered Clouds
9:53 AM 57.9 °F 48.9 °F 72% 30.35 in 10.0 mi NNE 6.9 mph - N/A   Partly Cloudy
10:53 AM 60.1 °F 48.9 °F 67% 30.35 in 10.0 mi NNE 9.2 mph - N/A   Clear
11:53 AM 62.1 °F 48.0 °F 60% 30.33 in 10.0 mi NE 8.1 mph - N/A   Clear
12:53 PM 63.0 °F 50.0 °F 63% 30.32 in 10.0 mi NNE 11.5 mph - N/A   Scattered Clouds
1:53 PM 64.0 °F 51.1 °F 63% 30.30 in 10.0 mi NNE 10.4 mph - 0.00 in Rain Light Rain
2:53 PM 66.0 °F 53.1 °F 63% 30.28 in 10.0 mi North 9.2 mph - 0.00 in   Overcast
3:53 PM 64.9 °F 55.0 °F 70% 30.27 in 10.0 mi NE 8.1 mph - 0.00 in Rain Light Rain
4:22 PM 63.0 °F 57.0 °F 81% 30.31 in 8.0 mi NE 8.1 mph - 0.01 in Rain Light Rain
4:53 PM 63.0 °F 57.9 °F 84% 30.27 in 8.0 mi ENE 5.8 mph - 0.01 in Rain Light Rain
5:53 PM 61.0 °F 57.9 °F 90% 30.27 in 7.0 mi North 4.6 mph - 0.01 in Rain Light Rain
6:53 PM 60.1 °F 57.9 °F 93% 30.27 in 4.0 mi North 4.6 mph - 0.00 in Rain Light Rain
6:57 PM 60.1 °F 57.9 °F 93% 30.31 in 1.8 mi North 4.6 mph - 0.02 in Rain Rain
7:14 PM 59.0 °F 57.9 °F 96% 30.30 in 2.0 mi North 4.6 mph - 0.04 in Rain Light Rain
7:25 PM 59.0 °F 57.9 °F 96% 30.31 in 4.0 mi North 4.6 mph - 0.05 in Rain Rain
7:36 PM 59.0 °F 57.9 °F 96% 30.30 in 1.8 mi North 4.6 mph - 0.11 in Rain Heavy Rain
7:44 PM 59.0 °F 57.9 °F 96% 30.30 in 2.5 mi North 4.6 mph - 0.13 in Rain Rain
7:53 PM 59.0 °F 57.9 °F 96% 30.27 in 3.0 mi North 5.8 mph - 0.14 in Rain Light Rain
8:53 PM 60.1 °F 57.9 °F 93% 30.26 in 10.0 mi North 5.8 mph - 0.01 in   Overcast
9:17 PM 61.0 °F 57.9 °F 90% 30.30 in 10.0 mi NNE 8.1 mph - 0.00 in Rain Light Rain
9:41 PM 61.0 °F 57.9 °F 90% 30.29 in 10.0 mi NNE 8.1 mph - 0.00 in   Overcast
9:53 PM 61.0 °F 57.9 °F 90% 30.25 in 10.0 mi NE 6.9 mph - 0.00 in   Overcast
10:23 PM 62.1 °F 57.9 °F 86% 30.29 in 10.0 mi NNE 8.1 mph - N/A   Overcast
10:53 PM 62.1 °F 57.9 °F 86% 30.25 in 10.0 mi NNE 5.8 mph - N/A   Overcast
11:53 PM 62.1 °F 57.9 °F 86% 30.24 in 10.0 mi NNE 6.9 mph - N/A   Overcast